owner,sensor,date,latitude,longitude,vertical_datum,direction_of_sea_water_velocity,sea_water_speed,upward_sea_water_velocity,qcFlag 
TABS,ioos:station:wmo:42046:1,2006-07-01T00:00:00Z,27.8903,-94.0367,2.0,119.1774271,5.886977153,-99999.0,'11133222,11111222,99999999' 
TABS,ioos:station:wmo:42046:1,2006-07-01T00:30:00Z,27.8903,-94.0367,2.0,82.18186809,3.896216113,-99999.0,'11133222,11111222,99999999' 
TABS,ioos:station:wmo:42046:1,2006-07-01T01:00:00Z,27.8903,-94.0367,2.0,50.6471761,7.617151699,-99999.0,'11133222,11111222,99999999' 
TABS,ioos:station:wmo:42046:1,2006-07-01T01:30:00Z,27.8903,-94.0367,2.0,31.48580405,6.777905281,-99999.0,'11133222,11111222,99999999' 
TABS,ioos:station:wmo:42046:1,2006-07-01T02:00:00Z,27.8903,-94.0367,2.0,37.09028277,8.324061509,-99999.0,'11133222,11111222,99999999' 
TABS,ioos:station:wmo:42046:1,2006-07-01T02:30:00Z,27.8903,-94.0367,2.0,24.96294192,10.8760149,-99999.0,'11111222,11111222,99999999' 
TABS,ioos:station:wmo:42046:1,2006-07-01T03:00:00Z,27.8903,-94.0367,2.0,17.75199673,12.20093439,-99999.0,'11111222,11111222,99999999' 
TABS,ioos:station:wmo:42046:1,2006-07-01T03:30:00Z,27.8903,-94.0367,2.0,23.23045934,16.60632711,-99999.0,'11111222,11111222,99999999' 
TABS,ioos:station:wmo:42046:1,2006-07-01T04:00:00Z,27.8903,-94.0367,2.0,32.97306902,18.39252566,-99999.0,'11111222,11111222,99999999' 
TABS,ioos:station:wmo:42046:1,2006-07-01T04:30:00Z,27.8903,-94.0367,2.0,29.96538898,20.96202519,-99999.0,'11111222,11111222,99999999' 
TABS,ioos:station:wmo:42046:1,2006-07-01T05:00:00Z,27.8903,-94.0367,2.0,26.63783287,21.16663648,-99999.0,'11111222,11111222,99999999' 
TABS,ioos:station:wmo:42046:1,2006-07-01T05:30:00Z,27.8903,-94.0367,2.0,22.60718747,24.03692368,-99999.0,'11111222,11111222,99999999' 
TABS,ioos:station:wmo:42046:1,2006-07-01T06:00:00Z,27.8903,-94.0367,2.0,37.67505994,29.89295067,-99999.0,'11111222,11111222,99999999' 
TABS,ioos:station:wmo:42046:1,2006-07-01T06:30:00Z,27.8903,-94.0367,2.0,38.28648492,31.14951846,-99999.0,'11111222,11111222,99999999' 
TABS,ioos:station:wmo:42046:1,2006-07-01T07:00:00Z,27.8903,-94.0367,2.0,42.40962567,28.94317363,-99999.0,'11111222,11111222,99999999' 
TABS,ioos:station:wmo:42046:1,2006-07-01T07:30:00Z,27.8903,-94.0367,2.0,54.65997572,24.27265128,-99999.0,'11111222,11111222,99999999' 
TABS,ioos:station:wmo:42046:1,2006-07-01T08:00:00Z,27.8903,-94.0367,2.0,65.10824587,24.35221961,-99999.0,'11111222,11111222,99999999' 
TABS,ioos:station:wmo:42046:1,2006-07-01T08:30:00Z,27.8903,-94.0367,2.0,70.46747143,29.87951974,-99999.0,'11111222,11111222,99999999' 
TABS,ioos:station:wmo:42046:1,2006-07-01T09:00:00Z,27.8903,-94.0367,2.0,77.55335677,39.34471756,-99999.0,'11111222,11111222,99999999' 
TABS,ioos:station:wmo:42046:1,2006-07-01T09:30:00Z,27.8903,-94.0367,2.0,77.32127117,34.3987805,-99999.0,'11111222,11111222,99999999' 
TABS,ioos:station:wmo:42046:1,2006-07-01T10:00:00Z,27.8903,-94.0367,2.0,80.35480758,31.93137798,-99999.0,'11111222,11111222,99999999' 
TABS,ioos:station:wmo:42046:1,2006-07-01T10:30:00Z,27.8903,-94.0367,2.0,86.77733907,30.41810316,-99999.0,'11111222,11111222,99999999' 
TABS,ioos:station:wmo:42046:1,2006-07-01T11:00:00Z,27.8903,-94.0367,2.0,92.63138722,31.58330255,-99999.0,'11111222,11111222,99999999' 
TABS,ioos:station:wmo:42046:1,2006-07-01T11:30:00Z,27.8903,-94.0367,2.0,91.88089386,31.07674372,-99999.0,'11111222,11111222,99999999' 
TABS,ioos:station:wmo:42046:1,2006-07-01T12:00:00Z,27.8903,-94.0367,2.0,92.32152516,31.10553005,-99999.0,'11111222,11111222,99999999' 
TABS,ioos:station:wmo:42046:1,2006-07-01T12:30:00Z,27.8903,-94.0367,2.0,100.6043902,32.33219603,-99999.0,'11111222,11111222,99999999' 
TABS,ioos:station:wmo:42046:1,2006-07-01T13:00:00Z,27.8903,-94.0367,2.0,102.1156392,34.44728291,-99999.0,'11111222,11111222,99999999' 
TABS,ioos:station:wmo:42046:1,2006-07-01T13:30:00Z,27.8903,-94.0367,2.0,98.14645286,34.64964791,-99999.0,'11111222,11111222,99999999' 
TABS,ioos:station:wmo:42046:1,2006-07-01T14:00:00Z,27.8903,-94.0367,2.0,98.06472535,34.71330869,-99999.0,'11111222,11111222,99999999' 
TABS,ioos:station:wmo:42046:1,2006-07-01T14:30:00Z,27.8903,-94.0367,2.0,97.23771508,33.41626251,-99999.0,'11111222,11111222,99999999' 
TABS,ioos:station:wmo:42046:1,2006-07-01T15:00:00Z,27.8903,-94.0367,2.0,97.92778299,32.8439005,-99999.0,'11111222,11111222,99999999' 
TABS,ioos:station:wmo:42046:1,2006-07-01T15:30:00Z,27.8903,-94.0367,2.0,96.87569268,40.76316106,-99999.0,'11111222,11111222,99999999' 
TABS,ioos:station:wmo:42046:1,2006-07-01T16:00:00Z,27.8903,-94.0367,2.0,107.2524589,44.43946444,-99999.0,'11111222,11111222,99999999' 
TABS,ioos:station:wmo:42046:1,2006-07-01T16:30:00Z,27.8903,-94.0367,2.0,105.9885269,41.93207126,-99999.0,'11111222,11111222,99999999' 
TABS,ioos:station:wmo:42046:1,2006-07-01T17:00:00Z,27.8903,-94.0367,2.0,104.2958116,41.75293642,-99999.0,'11111222,11111222,99999999' 
TABS,ioos:station:wmo:42046:1,2006-07-01T17:30:00Z,27.8903,-94.0367,2.0,101.6552269,39.69854909,-99999.0,'11111222,11111222,99999999' 
TABS,ioos:station:wmo:42046:1,2006-07-01T18:00:00Z,27.8903,-94.0367,2.0,97.40239721,36.63532858,-99999.0,'11111222,11111222,99999999' 
TABS,ioos:station:wmo:42046:1,2006-07-01T18:30:00Z,27.8903,-94.0367,2.0,97.12893699,36.09906924,-99999.0,'11111222,11111222,99999999' 
TABS,ioos:station:wmo:42046:1,2006-07-01T19:00:00Z,27.8903,-94.0367,2.0,97.58824288,35.59169004,-99999.0,'11111222,11111222,99999999' 
TABS,ioos:station:wmo:42046:1,2006-07-01T19:30:00Z,27.8903,-94.0367,2.0,98.98592207,35.78925258,-99999.0,'11111222,11111222,99999999' 
TABS,ioos:station:wmo:42046:1,2006-07-01T20:00:00Z,27.8903,-94.0367,2.0,88.98528776,34.44540173,-99999.0,'11111222,11111222,99999999' 
TABS,ioos:station:wmo:42046:1,2006-07-01T20:30:00Z,27.8903,-94.0367,2.0,88.12502461,32.39734557,-99999.0,'11111222,11111222,99999999' 
TABS,ioos:station:wmo:42046:1,2006-07-01T21:00:00Z,27.8903,-94.0367,2.0,90.43418667,31.67090936,-99999.0,'11111222,11111222,99999999' 
TABS,ioos:station:wmo:42046:1,2006-07-01T21:30:00Z,27.8903,-94.0367,2.0,92.78810144,27.34236639,-99999.0,'11111222,11111222,99999999' 
TABS,ioos:station:wmo:42046:1,2006-07-01T22:00:00Z,27.8903,-94.0367,2.0,94.39040936,26.51781477,-99999.0,'11111222,11111222,99999999' 
TABS,ioos:station:wmo:42046:1,2006-07-01T22:30:00Z,27.8903,-94.0367,2.0,88.38486369,25.19000794,-99999.0,'11111222,11111222,99999999' 
TABS,ioos:station:wmo:42046:1,2006-07-01T23:00:00Z,27.8903,-94.0367,2.0,85.27788672,26.35947268,-99999.0,'11111222,11111222,99999999' 
TABS,ioos:station:wmo:42046:1,2006-07-01T23:30:00Z,27.8903,-94.0367,2.0,88.79090038,23.6952759,-99999.0,'11111222,11111222,99999999' 
TABS,ioos:station:wmo:42046:1,2006-07-02T00:00:00Z,27.8903,-94.0367,2.0,91.60842248,22.08870299,-99999.0,'11111222,11111222,99999999' 
TABS,ioos:station:wmo:42046:1,2006-07-02T00:30:00Z,27.8903,-94.0367,2.0,92.42882211,23.36098671,-99999.0,'11111222,11111222,99999999' 
TABS,ioos:station:wmo:42046:1,2006-07-02T01:00:00Z,27.8903,-94.0367,2.0,97.29510149,24.64953144,-99999.0,'11111222,11111222,99999999' 
TABS,ioos:station:wmo:42046:1,2006-07-02T01:30:00Z,27.8903,-94.0367,2.0,139.8136527,19.46459607,-99999.0,'11111222,11111222,99999999' 
TABS,ioos:station:wmo:42046:1,2006-07-02T02:00:00Z,27.8903,-94.0367,2.0,133.6854569,16.95381078,-99999.0,'11111222,11111222,99999999' 
TABS,ioos:station:wmo:42046:1,2006-07-02T02:30:00Z,27.8903,-94.0367,2.0,131.7753797,14.07957386,-99999.0,'11111222,11111222,99999999' 
TABS,ioos:station:wmo:42046:1,2006-07-02T03:00:00Z,27.8903,-94.0367,2.0,128.1495981,12.80519426,-99999.0,'11111222,11111222,99999999' 
TABS,ioos:station:wmo:42046:1,2006-07-02T03:30:00Z,27.8903,-94.0367,2.0,149.1609928,7.081193402,-99999.0,'11133222,11111222,99999999' 
TABS,ioos:station:wmo:42046:1,2006-07-02T04:00:00Z,27.8903,-94.0367,2.0,117.2859177,6.042333986,-99999.0,'11133222,11111222,99999999' 
TABS,ioos:station:wmo:42046:1,2006-07-02T04:30:00Z,27.8903,-94.0367,2.0,114.2892307,5.518496172,-99999.0,'11133222,11111222,99999999' 
TABS,ioos:station:wmo:42046:1,2006-07-02T05:00:00Z,27.8903,-94.0367,2.0,62.53494848,6.548014966,-99999.0,'11133222,11111222,99999999' 
TABS,ioos:station:wmo:42046:1,2006-07-02T05:30:00Z,27.8903,-94.0367,2.0,59.16759082,8.233668684,-99999.0,'11133222,11111222,99999999' 
TABS,ioos:station:wmo:42046:1,2006-07-02T06:00:00Z,27.8903,-94.0367,2.0,57.01672731,13.04199371,-99999.0,'11111222,11111222,99999999' 
TABS,ioos:station:wmo:42046:1,2006-07-02T06:30:00Z,27.8903,-94.0367,2.0,40.78060455,15.95314389,-99999.0,'11111222,11111222,99999999' 
TABS,ioos:station:wmo:42046:1,2006-07-02T07:00:00Z,27.8903,-94.0367,2.0,50.9297916,20.05478746,-99999.0,'11111222,11111222,99999999' 
TABS,ioos:station:wmo:42046:1,2006-07-02T07:30:00Z,27.8903,-94.0367,2.0,55.98518694,23.97175421,-99999.0,'11111222,11111222,99999999' 
TABS,ioos:station:wmo:42046:1,2006-07-02T08:00:00Z,27.8903,-94.0367,2.0,54.53990662,24.06328323,-99999.0,'11111222,11111222,99999999' 
TABS,ioos:station:wmo:42046:1,2006-07-02T08:30:00Z,27.8903,-94.0367,2.0,56.19904501,25.77696646,-99999.0,'11111222,11111222,99999999' 
TABS,ioos:station:wmo:42046:1,2006-07-02T09:00:00Z,27.8903,-94.0367,2.0,55.59210403,26.12010911,-99999.0,'11111222,11111222,99999999' 
TABS,ioos:station:wmo:42046:1,2006-07-02T09:30:00Z,27.8903,-94.0367,2.0,73.93616304,27.89936379,-99999.0,'11111222,11111222,99999999' 
TABS,ioos:station:wmo:42046:1,2006-07-02T10:00:00Z,27.8903,-94.0367,2.0,93.58451528,30.54976596,-99999.0,'11111222,11111222,99999999' 
TABS,ioos:station:wmo:42046:1,2006-07-02T10:30:00Z,27.8903,-94.0367,2.0,102.9224187,30.94369079,-99999.0,'11111222,11111222,99999999' 
TABS,ioos:station:wmo:42046:1,2006-07-02T11:00:00Z,27.8903,-94.0367,2.0,101.3653803,24.30664518,-99999.0,'11111222,11111222,99999999' 
TABS,ioos:station:wmo:42046:1,2006-07-02T11:30:00Z,27.8903,-94.0367,2.0,92.05735488,35.93316296,-99999.0,'11111222,11111222,99999999' 
TABS,ioos:station:wmo:42046:1,2006-07-02T12:00:00Z,27.8903,-94.0367,2.0,87.03153303,35.33741643,-99999.0,'11111222,11111222,99999999' 
TABS,ioos:station:wmo:42046:1,2006-07-02T12:30:00Z,27.8903,-94.0367,2.0,80.54511523,38.10768558,-99999.0,'11111222,11111222,99999999' 
TABS,ioos:station:wmo:42046:1,2006-07-02T13:00:00Z,27.8903,-94.0367,2.0,82.98673864,40.70455626,-99999.0,'11111222,11111222,99999999' 
TABS,ioos:station:wmo:42046:1,2006-07-02T13:30:00Z,27.8903,-94.0367,2.0,82.05916998,40.24590911,-99999.0,'11111222,11111222,99999999' 
TABS,ioos:station:wmo:42046:1,2006-07-02T14:00:00Z,27.8903,-94.0367,2.0,80.4667895,38.52200021,-99999.0,'11111222,11111222,99999999' 
TABS,ioos:station:wmo:42046:1,2006-07-02T14:30:00Z,27.8903,-94.0367,2.0,86.00003323,38.13288869,-99999.0,'11111222,11111222,99999999' 
TABS,ioos:station:wmo:42046:1,2006-07-02T15:00:00Z,27.8903,-94.0367,2.0,87.76196399,37.89890896,-99999.0,'11111222,11111222,99999999' 
TABS,ioos:station:wmo:42046:1,2006-07-02T15:30:00Z,27.8903,-94.0367,2.0,87.56107565,37.36384616,-99999.0,'11111222,11111222,99999999' 
TABS,ioos:station:wmo:42046:1,2006-07-02T16:00:00Z,27.8903,-94.0367,2.0,90.50513153,37.43145469,-99999.0,'11111222,11111222,99999999' 
TABS,ioos:station:wmo:42046:1,2006-07-02T16:30:00Z,27.8903,-94.0367,2.0,86.47675261,39.05381415,-99999.0,'11111222,11111222,99999999' 
TABS,ioos:station:wmo:42046:1,2006-07-02T17:00:00Z,27.8903,-94.0367,2.0,89.61706218,31.42070177,-99999.0,'11111222,11111222,99999999' 
TABS,ioos:station:wmo:42046:1,2006-07-02T17:30:00Z,27.8903,-94.0367,2.0,92.40596489,34.54044875,-99999.0,'11111222,11111222,99999999' 
TABS,ioos:station:wmo:42046:1,2006-07-02T18:00:00Z,27.8903,-94.0367,2.0,92.57808028,34.01442782,-99999.0,'11111222,11111222,99999999' 
TABS,ioos:station:wmo:42046:1,2006-07-02T18:30:00Z,27.8903,-94.0367,2.0,100.3548061,28.70754605,-99999.0,'11111222,11111222,99999999' 
TABS,ioos:station:wmo:42046:1,2006-07-02T19:00:00Z,27.8903,-94.0367,2.0,100.8584925,25.6390581,-99999.0,'11111222,11111222,99999999' 
TABS,ioos:station:wmo:42046:1,2006-07-02T19:30:00Z,27.8903,-94.0367,2.0,85.2254977,30.63630852,-99999.0,'11111222,11111222,99999999' 
TABS,ioos:station:wmo:42046:1,2006-07-02T20:00:00Z,27.8903,-94.0367,2.0,79.51872053,32.8175837,-99999.0,'11111222,11111222,99999999' 
TABS,ioos:station:wmo:42046:1,2006-07-02T20:30:00Z,27.8903,-94.0367,2.0,82.72606796,34.3564972,-99999.0,'11111222,11111222,99999999' 
TABS,ioos:station:wmo:42046:1,2006-07-02T21:00:00Z,27.8903,-94.0367,2.0,78.00506998,39.69674294,-99999.0,'11111222,11111222,99999999' 
TABS,ioos:station:wmo:42046:1,2006-07-02T21:30:00Z,27.8903,-94.0367,2.0,72.31988396,42.96959506,-99999.0,'11111222,11111222,99999999' 
TABS,ioos:station:wmo:42046:1,2006-07-02T22:00:00Z,27.8903,-94.0367,2.0,73.32682054,42.17309569,-99999.0,'11111222,11111222,99999999' 
TABS,ioos:station:wmo:42046:1,2006-07-02T22:30:00Z,27.8903,-94.0367,2.0,77.93453836,42.38634332,-99999.0,'11111222,11111222,99999999' 
TABS,ioos:station:wmo:42046:1,2006-07-02T23:00:00Z,27.8903,-94.0367,2.0,83.00167209,40.9551291,-99999.0,'11111222,11111222,99999999' 
TABS,ioos:station:wmo:42046:1,2006-07-02T23:30:00Z,27.8903,-94.0367,2.0,81.84958463,39.8525407,-99999.0,'11111222,11111222,99999999' 
TABS,ioos:station:wmo:42046:1,2006-07-03T00:00:00Z,27.8903,-94.0367,2.0,92.73795244,39.77540572,-99999.0,'11111222,11111222,99999999' 
TABS,ioos:station:wmo:42046:1,2006-07-03T00:30:00Z,27.8903,-94.0367,2.0,96.1641648,35.94783999,-99999.0,'11111222,11111222,99999999' 
TABS,ioos:station:wmo:42046:1,2006-07-03T01:00:00Z,27.8903,-94.0367,2.0,100.2401041,30.88190732,-99999.0,'11111222,11111222,99999999' 
TABS,ioos:station:wmo:42046:1,2006-07-03T01:30:00Z,27.8903,-94.0367,2.0,95.75780578,32.59444431,-99999.0,'11111222,11111222,99999999' 
TABS,ioos:station:wmo:42046:1,2006-07-03T02:00:00Z,27.8903,-94.0367,2.0,95.64843504,31.19144915,-99999.0,'11111222,11111222,99999999' 
TABS,ioos:station:wmo:42046:1,2006-07-03T02:30:00Z,27.8903,-94.0367,2.0,99.23270021,32.40987658,-99999.0,'11111222,11111222,99999999' 
TABS,ioos:station:wmo:42046:1,2006-07-03T03:00:00Z,27.8903,-94.0367,2.0,101.9827369,30.72959486,-99999.0,'11111222,11111222,99999999' 
TABS,ioos:station:wmo:42046:1,2006-07-03T03:30:00Z,27.8903,-94.0367,2.0,99.24381461,28.88511208,-99999.0,'11111222,11111222,99999999' 
TABS,ioos:station:wmo:42046:1,2006-07-03T04:00:00Z,27.8903,-94.0367,2.0,95.36884373,27.36002924,-99999.0,'11111222,11111222,99999999' 
TABS,ioos:station:wmo:42046:1,2006-07-03T04:30:00Z,27.8903,-94.0367,2.0,86.61548996,26.08549789,-99999.0,'11111222,11111222,99999999' 
TABS,ioos:station:wmo:42046:1,2006-07-03T05:00:00Z,27.8903,-94.0367,2.0,85.30225894,25.27490851,-99999.0,'11111222,11111222,99999999' 
TABS,ioos:station:wmo:42046:1,2006-07-03T05:30:00Z,27.8903,-94.0367,2.0,87.56739614,30.15717659,-99999.0,'11111222,11111222,99999999' 
TABS,ioos:station:wmo:42046:1,2006-07-03T06:00:00Z,27.8903,-94.0367,2.0,81.17497142,29.26647399,-99999.0,'11111222,11111222,99999999' 
TABS,ioos:station:wmo:42046:1,2006-07-03T06:30:00Z,27.8903,-94.0367,2.0,79.30328969,27.85400869,-99999.0,'11111222,11111222,99999999' 
TABS,ioos:station:wmo:42046:1,2006-07-03T07:00:00Z,27.8903,-94.0367,2.0,70.44391259,26.82757537,-99999.0,'11111222,11111222,99999999' 
TABS,ioos:station:wmo:42046:1,2006-07-03T07:30:00Z,27.8903,-94.0367,2.0,77.96535671,29.30405603,-99999.0,'11111222,11111222,99999999' 
TABS,ioos:station:wmo:42046:1,2006-07-03T08:00:00Z,27.8903,-94.0367,2.0,77.95745302,29.90819453,-99999.0,'11111222,11111222,99999999' 
TABS,ioos:station:wmo:42046:1,2006-07-03T08:30:00Z,27.8903,-94.0367,2.0,78.00649336,31.23175627,-99999.0,'11111222,11111222,99999999' 
TABS,ioos:station:wmo:42046:1,2006-07-03T09:00:00Z,27.8903,-94.0367,2.0,76.7238344,31.26559291,-99999.0,'11111222,11111222,99999999' 
TABS,ioos:station:wmo:42046:1,2006-07-03T09:30:00Z,27.8903,-94.0367,2.0,76.59927676,32.1452236,-99999.0,'11111222,11111222,99999999' 
TABS,ioos:station:wmo:42046:1,2006-07-03T10:00:00Z,27.8903,-94.0367,2.0,77.71136559,32.60710352,-99999.0,'11111222,11111222,99999999' 
TABS,ioos:station:wmo:42046:1,2006-07-03T10:30:00Z,27.8903,-94.0367,2.0,77.11610777,32.20069099,-99999.0,'11111222,11111222,99999999' 
TABS,ioos:station:wmo:42046:1,2006-07-03T11:00:00Z,27.8903,-94.0367,2.0,81.68217324,33.66412037,-99999.0,'11111222,11111222,99999999' 
TABS,ioos:station:wmo:42046:1,2006-07-03T11:30:00Z,27.8903,-94.0367,2.0,81.9675691,30.70120682,-99999.0,'11111222,11111222,99999999' 
TABS,ioos:station:wmo:42046:1,2006-07-03T12:00:00Z,27.8903,-94.0367,2.0,81.68217324,33.66412037,-99999.0,'11111222,11111222,99999999' 
TABS,ioos:station:wmo:42046:1,2006-07-03T12:30:00Z,27.8903,-94.0367,2.0,81.3454081,35.68634613,-99999.0,'11111222,11111222,99999999' 
TABS,ioos:station:wmo:42046:1,2006-07-03T13:00:00Z,27.8903,-94.0367,2.0,83.52679732,32.81923369,-99999.0,'11111222,11111222,99999999' 
TABS,ioos:station:wmo:42046:1,2006-07-03T13:30:00Z,27.8903,-94.0367,2.0,87.92043776,34.72286855,-99999.0,'11111222,11111222,99999999' 
TABS,ioos:station:wmo:42046:1,2006-07-03T14:00:00Z,27.8903,-94.0367,2.0,86.88041151,36.93473298,-99999.0,'11111222,11111222,99999999' 
TABS,ioos:station:wmo:42046:1,2006-07-03T14:30:00Z,27.8903,-94.0367,2.0,83.07645095,34.92467609,-99999.0,'11111222,11111222,99999999' 
TABS,ioos:station:wmo:42046:1,2006-07-03T15:00:00Z,27.8903,-94.0367,2.0,88.28401148,38.73737214,-99999.0,'11111222,11111222,99999999' 
TABS,ioos:station:wmo:42046:1,2006-07-03T15:30:00Z,27.8903,-94.0367,2.0,89.27608632,38.78309554,-99999.0,'11111222,11111222,99999999' 
TABS,ioos:station:wmo:42046:1,2006-07-03T16:00:00Z,27.8903,-94.0367,2.0,89.84692624,37.43013358,-99999.0,'11111222,11111222,99999999' 
TABS,ioos:station:wmo:42046:1,2006-07-03T16:30:00Z,27.8903,-94.0367,2.0,89.48465624,37.80152907,-99999.0,'11111222,11111222,99999999' 
TABS,ioos:station:wmo:42046:1,2006-07-03T17:00:00Z,27.8903,-94.0367,2.0,90.57856189,35.65181763,-99999.0,'11111222,11111222,99999999' 
TABS,ioos:station:wmo:42046:1,2006-07-03T17:30:00Z,27.8903,-94.0367,2.0,92.63831703,31.28316001,-99999.0,'11111222,11111222,99999999' 
TABS,ioos:station:wmo:42046:1,2006-07-03T18:00:00Z,27.8903,-94.0367,2.0,95.72440119,28.87399003,-99999.0,'11111222,11111222,99999999' 
TABS,ioos:station:wmo:42046:1,2006-07-03T18:30:00Z,27.8903,-94.0367,2.0,97.25506903,32.78246482,-99999.0,'11111222,11111222,99999999' 
TABS,ioos:station:wmo:42046:1,2006-07-03T19:00:00Z,27.8903,-94.0367,2.0,90.0490265,35.06001284,-99999.0,'11111222,11111222,99999999' 
TABS,ioos:station:wmo:42046:1,2006-07-03T19:30:00Z,27.8903,-94.0367,2.0,83.68325141,37.80954906,-99999.0,'11111222,11111222,99999999' 
TABS,ioos:station:wmo:42046:1,2006-07-03T20:00:00Z,27.8903,-94.0367,2.0,93.7846996,38.93491235,-99999.0,'11111222,11111222,99999999' 
TABS,ioos:station:wmo:42046:1,2006-07-03T20:30:00Z,27.8903,-94.0367,2.0,107.2587818,40.21050733,-99999.0,'11111222,11111222,99999999' 
TABS,ioos:station:wmo:42046:1,2006-07-03T21:00:00Z,27.8903,-94.0367,2.0,112.751714,43.10396037,-99999.0,'11111222,11111222,99999999' 
TABS,ioos:station:wmo:42046:1,2006-07-03T21:30:00Z,27.8903,-94.0367,2.0,114.8803087,38.02959374,-99999.0,'11111222,11111222,99999999' 
TABS,ioos:station:wmo:42046:1,2006-07-03T22:00:00Z,27.8903,-94.0367,2.0,123.0695014,30.47701593,-99999.0,'11111222,11111222,99999999' 
TABS,ioos:station:wmo:42046:1,2006-07-03T22:30:00Z,27.8903,-94.0367,2.0,123.9476436,26.52048454,-99999.0,'11111222,11111222,99999999' 
TABS,ioos:station:wmo:42046:1,2006-07-03T23:00:00Z,27.8903,-94.0367,2.0,123.9581411,23.11183679,-99999.0,'11111222,11111222,99999999' 
TABS,ioos:station:wmo:42046:1,2006-07-03T23:30:00Z,27.8903,-94.0367,2.0,121.4357656,21.6472862,-99999.0,'11111222,11111222,99999999' 
TABS,ioos:station:wmo:42046:1,2006-07-04T00:00:00Z,27.8903,-94.0367,2.0,120.4963268,21.65584679,-99999.0,'11111222,11111222,99999999' 
TABS,ioos:station:wmo:42046:1,2006-07-04T00:30:00Z,27.8903,-94.0367,2.0,119.1833924,22.0259052,-99999.0,'11111222,11111222,99999999' 
TABS,ioos:station:wmo:42046:1,2006-07-04T01:00:00Z,27.8903,-94.0367,2.0,122.6371344,18.26381395,-99999.0,'11111222,11111222,99999999' 
TABS,ioos:station:wmo:42046:1,2006-07-04T01:30:00Z,27.8903,-94.0367,2.0,116.2400912,18.13927507,-99999.0,'11111222,11111222,99999999' 
TABS,ioos:station:wmo:42046:1,2006-07-04T02:00:00Z,27.8903,-94.0367,2.0,119.2219095,18.61962943,-99999.0,'11111222,11111222,99999999' 
TABS,ioos:station:wmo:42046:1,2006-07-04T02:30:00Z,27.8903,-94.0367,2.0,111.7011257,16.98372162,-99999.0,'11111222,11111222,99999999' 
TABS,ioos:station:wmo:42046:1,2006-07-04T03:00:00Z,27.8903,-94.0367,2.0,111.0132803,17.01130213,-99999.0,'11111222,11111222,99999999' 
TABS,ioos:station:wmo:42046:1,2006-07-04T03:30:00Z,27.8903,-94.0367,2.0,100.2417408,14.62299901,-99999.0,'11111222,11111222,99999999' 
TABS,ioos:station:wmo:42046:1,2006-07-04T04:00:00Z,27.8903,-94.0367,2.0,97.45868073,14.48254121,-99999.0,'11111222,11111222,99999999' 
TABS,ioos:station:wmo:42046:1,2006-07-04T04:30:00Z,27.8903,-94.0367,2.0,93.90128818,16.16746424,-99999.0,'11111222,11111222,99999999' 
TABS,ioos:station:wmo:42046:1,2006-07-04T05:00:00Z,27.8903,-94.0367,2.0,133.1544921,11.85725938,-99999.0,'11111222,11111222,99999999' 
TABS,ioos:station:wmo:42046:1,2006-07-04T05:30:00Z,27.8903,-94.0367,2.0,130.1490869,10.03443073,-99999.0,'11111222,11111222,99999999' 
TABS,ioos:station:wmo:42046:1,2006-07-04T06:00:00Z,27.8903,-94.0367,2.0,115.7534903,7.89411173,-99999.0,'11133222,11111222,99999999' 
TABS,ioos:station:wmo:42046:1,2006-07-04T06:30:00Z,27.8903,-94.0367,2.0,99.2686254,8.754296088,-99999.0,'11133222,11111222,99999999' 
TABS,ioos:station:wmo:42046:1,2006-07-04T07:00:00Z,27.8903,-94.0367,2.0,94.99793041,10.56015151,-99999.0,'11111222,11111222,99999999' 
TABS,ioos:station:wmo:42046:1,2006-07-04T07:30:00Z,27.8903,-94.0367,2.0,80.84829189,10.31125599,-99999.0,'11111222,11111222,99999999' 
TABS,ioos:station:wmo:42046:1,2006-07-04T08:00:00Z,27.8903,-94.0367,2.0,79.82707973,11.26712918,-99999.0,'11111222,11111222,99999999' 
TABS,ioos:station:wmo:42046:1,2006-07-04T08:30:00Z,27.8903,-94.0367,2.0,75.99390797,13.84151003,-99999.0,'11111222,11111222,99999999' 
TABS,ioos:station:wmo:42046:1,2006-07-04T09:00:00Z,27.8903,-94.0367,2.0,72.41117101,14.99083053,-99999.0,'11111222,11111222,99999999' 
TABS,ioos:station:wmo:42046:1,2006-07-04T09:30:00Z,27.8903,-94.0367,2.0,80.17108483,14.64496159,-99999.0,'11111222,11111222,99999999' 
TABS,ioos:station:wmo:42046:1,2006-07-04T10:00:00Z,27.8903,-94.0367,2.0,80.29559122,16.72939031,-99999.0,'11111222,11111222,99999999' 
TABS,ioos:station:wmo:42046:1,2006-07-04T10:30:00Z,27.8903,-94.0367,2.0,75.10656187,18.48085766,-99999.0,'11111222,11111222,99999999' 
TABS,ioos:station:wmo:42046:1,2006-07-04T11:00:00Z,27.8903,-94.0367,2.0,79.59420142,18.2704926,-99999.0,'11111222,11111222,99999999' 
TABS,ioos:station:wmo:42046:1,2006-07-04T11:30:00Z,27.8903,-94.0367,2.0,81.19563475,23.19329429,-99999.0,'11111222,11111222,99999999' 
TABS,ioos:station:wmo:42046:1,2006-07-04T12:00:00Z,27.8903,-94.0367,2.0,79.6875326,26.81313857,-99999.0,'11111222,11111222,99999999' 
TABS,ioos:station:wmo:42046:1,2006-07-04T12:30:00Z,27.8903,-94.0367,2.0,80.86842613,28.48095504,-99999.0,'11111222,11111222,99999999' 
TABS,ioos:station:wmo:42046:1,2006-07-04T13:00:00Z,27.8903,-94.0367,2.0,82.85186406,27.6448639,-99999.0,'11111222,11111222,99999999' 
TABS,ioos:station:wmo:42046:1,2006-07-04T13:30:00Z,27.8903,-94.0367,2.0,86.12011873,28.37503304,-99999.0,'11111222,11111222,99999999' 
TABS,ioos:station:wmo:42046:1,2006-07-04T14:00:00Z,27.8903,-94.0367,2.0,94.38687143,26.01621994,-99999.0,'11111222,11111222,99999999' 
TABS,ioos:station:wmo:42046:1,2006-07-04T14:30:00Z,27.8903,-94.0367,2.0,92.58903588,25.01553517,-99999.0,'11111222,11111222,99999999' 
TABS,ioos:station:wmo:42046:1,2006-07-04T15:00:00Z,27.8903,-94.0367,2.0,87.68151335,25.46084248,-99999.0,'11111222,11111222,99999999' 
TABS,ioos:station:wmo:42046:1,2006-07-04T15:30:00Z,27.8903,-94.0367,2.0,91.87670558,24.12293929,-99999.0,'11111222,11111222,99999999' 